Weather History for KAKO - February, 2014

Change the Weather History Date:

Tuesday, February 4, 2014

  Actual Average Record
Temperature  
Mean Temperature 4 °F 29 °F  
Max Temperature 16 °F 41 °F 64 °F (1963)
Min Temperature -8 °F 18 °F -19 °F (1989)
Degree Days  
Heating Degree Days 61    
Month to date heating degree days 229  
Cooling Degree Days 0    
Month to date cooling degree days 0  
Moisture  
Dew Point 3 °F    
Average Humidity 90    
Maximum Humidity 100    
Minimum Humidity 79    
Precipitation  
Precipitation 0.01 in 0.01 in 0.39 in (1986)
Month to date precipitation 0.01 0.06  
Year to date precipitation 0.25 0.36  
Sea Level Pressure  
Sea Level Pressure 30.10 in    
Wind  
Wind Speed 12 mph (NE)    
Max Wind Speed 24 mph    
Max Gust Speed 27 mph    
Visibility 2 miles    
Events Fog , Snow    
T = Trace of Precipitation, MM = Missing Value Source: NWS Daily Summary

Daily Weather History Graph

Daily Weather History Graph

Search for Another Location

Airport or City:

Trip Planner

Search our weather history database for the weather conditions in past years. The results will help you decide how hot, cold, wet, or windy it might be!

Date:

Astronomy

Feb. 04, 2014 Rise Set
Actual Time 6:58 AM MST 5:15 PM MST
Civil Twilight 6:30 AM MST 5:43 PM MST
Nautical Twilight 5:57 AM MST 6:16 PM MST
Astronomical Twilight 5:26 AM MST 6:48 PM MST
Moon 9:37 AM MST (2/4) 11:12 PM MST (2/4)
Length of Visible Light 11h 13m
Length of Day
10h 16m
Waxing Crescent, 29% of the Moon is Illuminated
Feb 4
Waxing Crescent
Feb 6
First Quarter
Feb 14
Full
Feb 22
Last Quarter
Mar 1
New

Hourly Weather History & Observations

Time (MST) Temp. Windchill Dew Point Humidity Pressure Visibility Wind Dir Wind Speed Gust Speed Precip Events Conditions
12:00 AM 12.0 °F 0.5 °F 10.0 °F 92% 29.92 in 1.2 mi ENE 8.1 mph - N/A   Overcast
12:05 AM 12.0 °F 0.5 °F 10.0 °F 92% 29.92 in 0.8 mi ENE 8.1 mph - N/A   Overcast
12:14 AM 12.0 °F 0.5 °F 10.0 °F 92% 29.91 in 0.5 mi ENE 8.1 mph - N/A Fog Light Freezing Fog
12:39 AM 12.9 °F 2.6 °F 10.9 °F 92% 29.91 in 1.0 mi East 6.9 mph - N/A   Mist
12:46 AM 12.9 °F 2.6 °F 10.9 °F 92% 29.91 in 0.5 mi East 6.9 mph - N/A Fog Light Freezing Fog
12:53 AM 12.9 °F 2.6 °F 12.0 °F 96% 30.10 in 0.2 mi ENE 6.9 mph - N/A Fog Light Freezing Fog
1:53 AM 14.0 °F 2.9 °F 12.0 °F 92% 30.09 in 0.2 mi NE 8.1 mph - N/A Fog Light Freezing Fog
2:53 AM 15.1 °F 3.3 °F 12.9 °F 91% 30.09 in 0.2 mi NNE 9.2 mph - N/A Fog Light Freezing Fog
3:53 AM 15.1 °F 3.3 °F 14.0 °F 95% 30.10 in 0.2 mi ENE 9.2 mph - N/A Fog Light Freezing Fog
4:53 AM 15.1 °F 2.5 °F 12.9 °F 91% 30.11 in 0.5 mi ENE 10.4 mph - N/A Fog Light Freezing Fog
5:24 AM 14.0 °F -0.2 °F 12.0 °F 92% 29.93 in 1.0 mi NE 12.7 mph - 0.00 in Snow Light Snow
5:45 AM 14.0 °F 0.5 °F 12.0 °F 92% 29.92 in 1.0 mi ENE 11.5 mph - 0.00 in Snow Light Snow
5:53 AM 14.0 °F 1.2 °F 10.9 °F 88% 30.13 in 1.0 mi NE 10.4 mph - 0.00 in Snow Light Snow
6:02 AM 14.0 °F 0.5 °F 10.9 °F 88% 29.92 in 1.0 mi ENE 11.5 mph - 0.00 in Snow Light Snow
6:21 AM 14.0 °F 0.5 °F 10.9 °F 88% 29.93 in 1.2 mi ENE 11.5 mph - 0.01 in Snow Light Snow
6:30 AM 14.0 °F 2.0 °F 10.9 °F 88% 29.93 in 1.8 mi NE 9.2 mph - 0.01 in Snow Light Snow
6:38 AM 14.0 °F 1.2 °F 10.9 °F 88% 29.94 in 2.0 mi NE 10.4 mph - 0.01 in Snow Light Snow
6:53 AM 14.0 °F -0.2 °F 10.9 °F 88% 30.13 in 2.5 mi NE 12.7 mph - 0.01 in Snow Light Snow
7:02 AM 14.0 °F 0.5 °F 10.9 °F 88% 29.94 in 1.8 mi NE 11.5 mph - 0.00 in Snow Light Snow
7:09 AM 12.9 °F -2.8 °F 10.9 °F 92% 29.94 in 1.0 mi NE 15.0 mph - 0.00 in Snow Light Snow
7:19 AM 12.9 °F -1.6 °F 10.0 °F 88% 29.94 in 0.8 mi ENE 12.7 mph - 0.00 in Snow Light Snow
7:35 AM 12.0 °F -4.0 °F 9.0 °F 88% 29.94 in 1.2 mi NE 15.0 mph - 0.00 in Snow Light Snow
7:47 AM 12.2 °F -3.7 °F 8.6 °F 85% 29.94 in 1.0 mi NE 15.0 mph - 0.00 in Snow Light Snow
7:53 AM 12.0 °F -3.4 °F 9.0 °F 88% 30.17 in 1.0 mi NE 13.8 mph - 0.00 in Snow Light Snow
8:00 AM 12.0 °F -3.4 °F 9.0 °F 88% 29.95 in 1.0 mi NE 13.8 mph - 0.00 in Snow Light Snow
8:07 AM 12.0 °F -4.0 °F 9.0 °F 88% 29.94 in 1.2 mi NE 15.0 mph - 0.00 in Snow Light Snow
8:17 AM 10.9 °F -4.7 °F 8.1 °F 88% 29.95 in 1.5 mi NE 13.8 mph - 0.00 in Snow Light Snow
8:28 AM 10.9 °F -5.9 °F 8.1 °F 88% 29.95 in 2.0 mi NE 16.1 mph - 0.00 in Snow Light Snow
8:39 AM 10.9 °F -4.1 °F 8.1 °F 88% 29.95 in 1.5 mi NE 12.7 mph - 0.00 in Snow Light Snow
8:53 AM 10.9 °F -4.7 °F 7.0 °F 84% 30.18 in 1.2 mi NE 13.8 mph - 0.00 in Snow Light Snow
9:02 AM 10.9 °F -4.7 °F 8.1 °F 88% 29.96 in 1.2 mi NE 13.8 mph - 0.00 in Snow Light Snow
9:09 AM 10.9 °F -4.7 °F 7.0 °F 84% 29.96 in 1.0 mi ENE 13.8 mph - 0.00 in Snow Light Snow
9:29 AM 10.0 °F -6.5 °F 6.1 °F 84% 29.96 in 0.8 mi ENE 15.0 mph - 0.00 in Snow Light Snow
9:53 AM 9.0 °F -6.6 °F 6.1 °F 88% 30.19 in 0.5 mi ENE 12.7 mph - 0.00 in Fog , Snow Snow
10:18 AM 9.0 °F -7.3 °F 6.1 °F 88% 29.97 in 1.0 mi ENE 13.8 mph - 0.00 in Snow Light Snow
10:29 AM 9.0 °F -7.3 °F 6.1 °F 88% 29.98 in 1.2 mi ENE 13.8 mph - 0.00 in Snow Light Snow
10:46 AM 9.0 °F -7.3 °F 6.1 °F 88% 29.98 in 0.8 mi NE 13.8 mph - 0.00 in Snow Light Snow
10:53 AM 9.0 °F -8.5 °F 5.0 °F 84% 30.21 in 0.5 mi NE 16.1 mph - 0.00 in Fog , Snow Light Snow
11:53 AM 8.1 °F -9.0 °F 3.9 °F 83% 30.22 in 0.5 mi ENE 15.0 mph - 0.00 in Fog , Snow Light Snow
12:03 PM 9.0 °F -7.9 °F 3.9 °F 80% 29.99 in 0.8 mi NE 15.0 mph - 0.00 in Snow Light Snow
12:12 PM 8.1 °F -9.0 °F 3.9 °F 83% 29.99 in 1.2 mi NE 15.0 mph - 0.00 in Snow Light Snow
12:22 PM 8.1 °F -9.0 °F 3.9 °F 83% 29.98 in 0.8 mi NE 15.0 mph - 0.00 in Snow Light Snow
12:42 PM 8.1 °F -10.2 °F 3.9 °F 83% 29.98 in 1.0 mi NE 17.3 mph - 0.00 in Snow Light Snow
12:53 PM 8.1 °F -10.2 °F 3.0 °F 80% 30.19 in 1.0 mi NE 17.3 mph - 0.00 in Snow Light Snow
1:12 PM 8.1 °F -10.2 °F 3.0 °F 80% 29.98 in 1.0 mi NNE 17.3 mph - 0.00 in Snow Light Snow
1:21 PM 8.1 °F -9.6 °F 3.0 °F 80% 29.98 in 1.2 mi NNE 16.1 mph - 0.00 in Snow Light Snow
1:28 PM 8.1 °F -10.7 °F 3.0 °F 80% 29.99 in 1.0 mi NNE 18.4 mph - 0.00 in Snow Light Snow
1:53 PM 8.1 °F -11.2 °F 3.0 °F 80% 30.21 in 1.2 mi NNE 19.6 mph - 0.00 in Snow Light Snow
2:00 PM 7.0 °F -12.1 °F 1.9 °F 80% 29.99 in 2.0 mi NNE 18.4 mph - 0.00 in Snow Light Snow
2:17 PM 7.0 °F -13.6 °F 1.9 °F 80% 29.99 in 1.2 mi NNE 21.9 mph - 0.00 in Snow Light Snow
2:37 PM 6.1 °F -13.3 °F 1.0 °F 80% 30.00 in 1.8 mi NE 18.4 mph - 0.00 in Snow Light Snow
2:45 PM 6.1 °F -14.3 °F 1.0 °F 80% 30.00 in 2.0 mi NNE 20.7 mph - 0.00 in Snow Light Snow
2:53 PM 6.1 °F -13.8 °F 1.0 °F 80% 30.22 in 2.0 mi NE 19.6 mph - 0.00 in Snow Light Snow
3:03 PM 6.1 °F -14.3 °F 1.0 °F 80% 30.02 in 3.0 mi NNE 20.7 mph - 0.00 in Snow Light Snow
3:18 PM 5.0 °F -15.2 °F 1.0 °F 84% 30.02 in 2.5 mi NNE 19.6 mph - 0.00 in Snow Light Snow
3:39 PM 3.9 °F -18.5 °F -0.0 °F 84% 30.03 in 1.2 mi NNE 24.2 mph - 0.00 in Snow Light Snow
3:53 PM 3.9 °F -16.6 °F -0.9 °F 80% 30.27 in 1.8 mi NNE 19.6 mph - 0.00 in Snow Light Snow
4:02 PM 3.0 °F -18.3 °F -0.9 °F 84% 30.05 in 1.0 mi NNE 20.7 mph - 0.00 in Snow Light Snow
4:31 PM 1.9 °F -18.7 °F -2.0 °F 83% 30.08 in 1.2 mi NNE 18.4 mph - 0.00 in Snow Light Snow
4:40 PM 1.9 °F -19.2 °F -2.9 °F 80% 30.08 in 1.8 mi NNE 19.6 mph - 0.00 in Snow Light Snow
4:53 PM 1.0 °F -20.4 °F -2.9 °F 83% 30.33 in 1.5 mi NNE 19.6 mph - 0.00 in Snow Light Snow
5:01 PM 1.0 °F -19.3 °F -2.9 °F 83% 30.09 in 1.5 mi NNE 17.3 mph - 0.00 in Snow Light Snow
5:11 PM 1.0 °F -21.4 °F -4.0 °F 79% 30.10 in 3.0 mi NNE 21.9 mph - 0.00 in Snow Light Snow
5:53 PM -0.0 °F -19.4 °F -5.1 °F 79% 30.39 in 4.0 mi NNE 15.0 mph - 0.00 in Snow Light Snow
6:53 PM -0.0 °F -20.7 °F -5.1 °F 79% 30.43 in 6.0 mi NNE 17.3 mph - 0.00 in Snow Light Snow
7:50 PM -0.4 °F -21.7 °F -5.8 °F 78% 30.21 in 1.8 mi North 18.4 mph - 0.00 in Snow Light Snow
7:53 PM -0.9 °F -21.2 °F -6.0 °F 79% 30.48 in 1.5 mi North 16.1 mph - 0.00 in Snow Light Snow
8:03 PM -0.9 °F -19.9 °F -6.0 °F 79% 30.21 in 3.0 mi North 13.8 mph - 0.00 in Snow Light Snow
8:39 PM -2.0 °F -23.3 °F -7.1 °F 79% 30.23 in 2.0 mi North 17.3 mph - 0.00 in Snow Light Snow
8:49 PM -2.2 °F -22.2 °F -7.6 °F 78% 30.23 in 4.0 mi NNE 15.0 mph - 0.00 in Snow Light Snow
8:53 PM -2.0 °F -21.2 °F -7.1 °F 79% 30.51 in 3.0 mi NNE 13.8 mph - 0.00 in Snow Light Snow
9:08 PM -2.0 °F -23.3 °F -7.1 °F 79% 30.24 in 2.0 mi NNE 17.3 mph - 0.00 in Snow Light Snow
9:42 PM -4.0 °F -23.0 °F -8.0 °F 83% 30.26 in 3.0 mi NNE 12.7 mph - 0.00 in Snow Light Snow
9:50 PM -5.8 °F -24.4 °F -9.4 °F 84% 30.26 in 2.5 mi NNE 11.5 mph - 0.00 in Snow Light Snow
9:53 PM -5.1 °F -22.5 °F -9.0 °F 83% 30.56 in 3.0 mi NNE 10.4 mph - 0.00 in Snow Light Snow
10:02 PM -6.0 °F -22.6 °F -9.0 °F 87% 30.26 in 4.0 mi North 9.2 mph - 0.00 in Snow Light Snow
10:28 PM -6.0 °F -25.5 °F -9.9 °F 83% 30.27 in 10.0 mi North 12.7 mph - 0.00 in   Overcast
10:53 PM -6.0 °F -26.3 °F -9.9 °F 83% 30.58 in 10.0 mi North 13.8 mph - 0.00 in   Overcast
11:36 PM -6.0 °F -24.6 °F -9.9 °F 83% 30.30 in 2.5 mi North 11.5 mph - 0.00 in Snow Light Snow
11:45 PM -7.1 °F -25.9 °F -11.0 °F 83% 30.30 in 3.0 mi North 11.5 mph - 0.00 in Snow Light Snow
11:53 PM -7.1 °F -25.9 °F -11.9 °F 79% 30.61 in 4.0 mi North 11.5 mph - 0.00 in Snow Light Snow